North Bend, OR

9:06 PM PDT on October 23, 2017 (GMT -0700)
North Bend Municipal

Weather History for KOTH - October, 2012

Change the Weather History Date:

Monday, October 29, 2012

  Actual Average Record
Temperature  
Mean Temperature 60 °F 52 °F  
Max Temperature 63 °F 59 °F 83 °F (1939)
Min Temperature 57 °F 45 °F 28 °F (1971)
Degree Days  
Heating Degree Days 5 13  
Month to date heating degree days 288 332  
Since 1 July heating degree days 887 940  
Cooling Degree Days 0 0  
Month to date cooling degree days 1 0  
Year to date cooling degree days 1 2  
Growing Degree Days 10 (Base 50)    
Moisture  
Dew Point 60 °F    
Average Humidity 96    
Maximum Humidity 100    
Minimum Humidity 84    
Precipitation  
Precipitation 0.35 in 0.23 in 1.61 in (1950)
Month to date precipitation 5.22 4.25  
Year to date precipitation 34.02 43.07  
Sea Level Pressure  
Sea Level Pressure 30.05 in    
Wind  
Wind Speed 7 mph (SSW)    
Max Wind Speed 16 mph    
Max Gust Speed 25 mph    
Visibility 8 miles    
Events      
T = Trace of Precipitation, MM = Missing Value Source: NWS Daily Summary

Daily Weather History Graph

Daily Weather History Graph

Search for Another Location

Airport or City:

Trip Planner

Search our weather history database for the weather conditions in past years. The results will help you decide how hot, cold, wet, or windy it might be!

Date:

Astronomy

Oct. 29, 2012 Rise Set
Actual Time 7:49 AM PDT 6:11 PM PDT
Civil Twilight 7:19 AM PDT 6:41 PM PDT
Nautical Twilight 6:45 AM PDT 7:14 PM PDT
Astronomical Twilight 6:12 AM PDT 7:47 PM PDT
Moon 6:05 PM PDT (10/29) 7:46 AM PDT (10/29)
Length of Visible Light 11h 21m
Length of Day
10h 22m
Full, 100% of the Moon is Illuminated
Oct 29
Full
Oct 29
Full
Nov 6
Last Quarter
Nov 13
New
Nov 20
First Quarter

Hourly Weather History & Observations

Time (PDT) Temp. Dew Point Humidity Pressure Visibility Wind Dir Wind Speed Gust Speed Precip Events Conditions
12:15 AM 60.8 °F 59.0 °F 94% 29.98 in 10.0 mi SSE 5.8 mph - N/A   Overcast
12:35 AM 60.8 °F 57.2 °F 88% 29.99 in 10.0 mi South 3.5 mph - N/A   Overcast
12:55 AM 62.6 °F 57.2 °F 82% 30.00 in 10.0 mi SSW 12.7 mph 18.4 mph N/A   Overcast
1:15 AM 62.6 °F 57.2 °F 82% 30.00 in 10.0 mi SSW 9.2 mph 19.6 mph N/A   Overcast
1:35 AM 60.8 °F 59.0 °F 94% 30.01 in 10.0 mi SSW 11.5 mph 19.6 mph N/A   Overcast
1:55 AM 60.8 °F 59.0 °F 94% 30.01 in 10.0 mi SSW 13.8 mph 25.3 mph N/A   Overcast
2:15 AM 60.8 °F 59.0 °F 94% 30.01 in 9.0 mi SSW 12.7 mph 21.9 mph N/A   Overcast
2:55 AM 60.8 °F 60.8 °F 100% 30.01 in 3.0 mi South 8.1 mph - N/A   Overcast
3:15 AM 60.8 °F 60.8 °F 100% 30.01 in 9.0 mi South 10.4 mph 18.4 mph 0.01 in   Overcast
3:55 AM 60.8 °F 60.8 °F 100% 30.01 in 7.0 mi South 11.5 mph - 0.01 in   Overcast
4:15 AM 60.8 °F 60.8 °F 100% 30.01 in 10.0 mi South 11.5 mph 17.3 mph N/A   Overcast
4:35 AM 60.8 °F 60.8 °F 100% 30.00 in 6.0 mi South 8.1 mph - N/A   Overcast
4:55 AM 60.8 °F 60.8 °F 100% 30.00 in 6.0 mi South 8.1 mph - 0.01 in   Overcast
5:15 AM 60.8 °F 59.0 °F 94% 30.00 in 7.0 mi South 8.1 mph - 0.12 in   Overcast
5:35 AM 60.8 °F 60.8 °F 100% 30.01 in 8.0 mi SE 3.5 mph - 0.15 in   Overcast
5:55 AM 60.8 °F 60.8 °F 100% 30.01 in 5.0 mi SW 4.6 mph - 0.22 in   Overcast
6:15 AM 60.8 °F 59.0 °F 94% 30.02 in 6.0 mi SSW 10.4 mph - 0.09 in   Overcast
6:35 AM 60.8 °F 60.8 °F 100% 30.03 in 5.0 mi SSW 12.7 mph 18.4 mph 0.11 in   Overcast
6:55 AM 60.8 °F 60.8 °F 100% 30.03 in 7.0 mi SSW 16.1 mph 23.0 mph 0.11 in   Overcast
7:35 AM 60.8 °F 59.0 °F 94% 30.05 in 3.0 mi SSW 11.5 mph 20.7 mph 0.01 in   Overcast
7:55 AM 60.8 °F 59.0 °F 94% 30.06 in 2.0 mi SSW 6.9 mph - 0.01 in   Overcast
8:15 AM 59.0 °F 59.0 °F 100% 30.06 in 2.0 mi SSW 10.4 mph - N/A   Overcast
8:35 AM 60.8 °F 59.0 °F 94% 30.08 in 2.0 mi SW 8.1 mph - N/A   Overcast
8:55 AM 60.8 °F 59.0 °F 94% 30.08 in 2.0 mi SSW 9.2 mph - N/A   Overcast
9:15 AM 60.8 °F 59.0 °F 94% 30.09 in 2.0 mi SW 10.4 mph - N/A   Overcast
9:35 AM 60.8 °F 59.0 °F 94% 30.10 in 2.0 mi SW 8.1 mph - N/A   Overcast
9:55 AM 60.8 °F 59.0 °F 94% 30.11 in 1.5 mi SW 13.8 mph - N/A   Overcast
10:35 AM 60.8 °F 59.0 °F 94% 30.11 in 1.0 mi SW 9.2 mph - 0.01 in   Overcast
10:55 AM 60.8 °F 60.8 °F 100% 30.11 in 1.5 mi SW 8.1 mph 16.1 mph 0.01 in   Overcast
11:15 AM 60.8 °F 60.8 °F 100% 30.12 in 1.5 mi SW 8.1 mph 16.1 mph N/A   Overcast
11:35 AM 60.8 °F 60.8 °F 100% 30.12 in 1.5 mi SW 9.2 mph - N/A   Overcast
11:55 AM 60.8 °F 60.8 °F 100% 30.12 in 1.5 mi SW 6.9 mph - N/A   Overcast
12:15 PM 62.6 °F 60.8 °F 94% 30.12 in 7.0 mi SW 9.2 mph - N/A   Overcast
12:35 PM 60.8 °F 59.0 °F 94% 30.12 in 5.0 mi SW 8.1 mph - N/A   Overcast
1:15 PM 62.6 °F 62.6 °F 100% 30.11 in 10.0 mi SW 5.8 mph - N/A   Overcast
1:35 PM 62.6 °F 60.8 °F 94% 30.11 in 10.0 mi SW 9.2 mph - N/A   Overcast
1:55 PM 62.6 °F 62.6 °F 100% 30.11 in 10.0 mi WSW 4.6 mph - N/A   Overcast
2:15 PM 62.6 °F 60.8 °F 94% 30.10 in 10.0 mi SW 5.8 mph - N/A   Overcast
2:35 PM 62.6 °F 60.8 °F 94% 30.10 in 10.0 mi SW 5.8 mph - N/A   Overcast
2:55 PM 62.6 °F 60.8 °F 94% 30.09 in 10.0 mi SW 9.2 mph - N/A   Overcast
3:15 PM 62.6 °F 60.8 °F 94% 30.09 in 9.0 mi SW 9.2 mph - N/A   Overcast
3:35 PM 60.8 °F 60.8 °F 100% 30.09 in 8.0 mi SW 4.6 mph - N/A   Overcast
3:55 PM 60.8 °F 59.0 °F 94% 30.09 in 10.0 mi WSW 4.6 mph - N/A   Overcast
4:15 PM 62.6 °F 60.8 °F 94% 30.09 in 10.0 mi WSW 4.6 mph - N/A   Overcast
4:35 PM 62.6 °F 60.8 °F 94% 30.08 in 10.0 mi SSW 8.1 mph - N/A   Overcast
4:55 PM 62.6 °F 60.8 °F 94% 30.08 in 10.0 mi SSW 5.8 mph - N/A   Scattered Clouds
5:15 PM 62.6 °F 60.8 °F 94% 30.07 in 10.0 mi SSW 3.5 mph - N/A   Partly Cloudy
5:35 PM 62.6 °F 60.8 °F 94% 30.07 in 10.0 mi Calm Calm - N/A   Scattered Clouds
5:55 PM 62.6 °F 60.8 °F 94% 30.06 in 10.0 mi SSW 3.5 mph - N/A   Scattered Clouds
6:15 PM 62.6 °F 60.8 °F 94% 30.07 in 10.0 mi Calm Calm - N/A   Mostly Cloudy
6:35 PM 59.0 °F 57.2 °F 94% 30.07 in 6.0 mi West 8.1 mph - N/A   Overcast
7:15 PM 57.2 °F 57.2 °F 100% 30.06 in 10.0 mi SW 3.5 mph - N/A   Overcast
7:35 PM 60.8 °F 59.0 °F 94% 30.05 in 10.0 mi Calm Calm - N/A   Overcast
7:55 PM 60.8 °F 60.8 °F 100% 30.05 in 10.0 mi SW 3.5 mph - N/A   Overcast
8:15 PM 60.8 °F 59.0 °F 94% 30.05 in 10.0 mi Calm Calm - N/A   Mostly Cloudy
8:35 PM 60.8 °F 59.0 °F 94% 30.04 in 10.0 mi Calm Calm - N/A   Overcast
8:55 PM 59.0 °F 59.0 °F 100% 30.04 in 10.0 mi Calm Calm - N/A   Overcast
9:15 PM 59.0 °F 59.0 °F 100% 30.04 in 10.0 mi Calm Calm - N/A   Overcast
9:35 PM 59.0 °F 59.0 °F 100% 30.03 in 10.0 mi SSE 3.5 mph - N/A   Mostly Cloudy
9:55 PM 59.0 °F 59.0 °F 100% 30.02 in 10.0 mi ESE 3.5 mph - N/A   Scattered Clouds
10:15 PM 59.0 °F 57.2 °F 94% 30.03 in 10.0 mi Calm Calm - N/A   Overcast
10:35 PM 60.8 °F 59.0 °F 94% 30.03 in 10.0 mi SW 4.6 mph - N/A   Overcast
10:55 PM 60.8 °F 59.0 °F 94% 30.02 in 10.0 mi Calm Calm - N/A   Overcast
11:15 PM 57.2 °F 57.2 °F 100% 30.01 in 10.0 mi Calm Calm - N/A   Overcast
11:35 PM 59.0 °F 59.0 °F 100% 30.01 in 10.0 mi SSE 3.5 mph - N/A   Overcast
11:55 PM 59.0 °F 59.0 °F 100% 30.01 in 10.0 mi Calm Calm - N/A   Overcast